C6596 KMOB-KMOB

Flight info

Callsign C6596
Flight time N/A
Altitude 5000
Route VFR
Aircraft AS65/L-V/N

Departure

Time 2026-04-11 22:33
Airport Mobile Regional Airport (KMOB)

Arrival

Time N/A
Airport Mobile Regional Airport (KMOB)
Time Latitude Longitude Altitude Speed Heading
2026-04-11 22:28 30.69383 -88.24207 220 ft 0 kts
2026-04-11 22:31 30.69399 -88.24243 340 ft 14 kts 356°
2026-04-11 22:31 30.69378 -88.24505 337 ft 50 kts 268°
2026-04-11 22:31 30.69302 -88.24853 361 ft 33 kts 262°
2026-04-11 22:31 30.69274 -88.25017 302 ft 9 kts 265°
2026-04-11 22:32 30.69258 -88.24999 584 ft 11 kts 266°
2026-04-11 22:32 30.69254 -88.24987 626 ft 12 kts 265°
2026-04-11 22:32 30.69218 -88.24890 544 ft 22 kts 129°
2026-04-11 22:32 30.68857 -88.25020 392 ft 87 kts 231°
2026-04-11 22:33 30.68166 -88.24989 405 ft 121 kts 176°
2026-04-11 22:33 30.67325 -88.24767 428 ft 121 kts 168°
2026-04-11 22:33 30.66506 -88.24503 619 ft 124 kts 166°
2026-04-11 22:33 30.65687 -88.24229 829 ft 122 kts 166°
2026-04-11 22:34 30.64869 -88.23957 931 ft 122 kts 167°
2026-04-11 22:34 30.64051 -88.23687 965 ft 122 kts 167°
2026-04-11 22:34 30.63233 -88.23417 984 ft 122 kts 167°
2026-04-11 22:34 30.62415 -88.23149 994 ft 122 kts 167°
2026-04-11 22:35 30.61595 -88.22879 994 ft 122 kts 167°
2026-04-11 22:35 30.60775 -88.22610 997 ft 122 kts 167°
2026-04-11 22:35 30.59955 -88.22347 999 ft 122 kts 170°
2026-04-11 22:35 30.59095 -88.22226 978 ft 133 kts 178°
2026-04-11 22:36 30.58096 -88.22137 984 ft 153 kts 178°
2026-04-11 22:36 30.56999 -88.22050 995 ft 161 kts 179°
2026-04-11 22:36 30.55934 -88.21974 1032 ft 140 kts 180°
2026-04-11 22:36 30.55073 -88.21867 1017 ft 115 kts 171°
2026-04-11 22:37 30.54357 -88.21620 999 ft 104 kts 163°
2026-04-11 22:37 30.53671 -88.21323 1000 ft 105 kts 162°
2026-04-11 22:37 30.53036 -88.21046 1009 ft 89 kts 163°
2026-04-11 22:37 30.52418 -88.20849 975 ft 106 kts 168°